User: anonymous   Login
Location: ??
(34.9170°N, 135.5016°E)
Time: 05:52:21
(UTC+00:00)
Language:

Cosmos 2180 Rocket - Orbit

View from above orbital plane
View from above orbital plane
View from above satellite
View from above satellite

Ground track
Ground track

The orbit data is extracted from the following two-line orbital elements,

1 21876U 92008B   21015.53918404 -.00000017  00000-0 -33438-4 0  9991
2 21876  82.9254 224.7757 0034513 343.7447  74.2600 13.75668930451038
Epoch (UTC): 15 January 2021 12:56:25
Eccentricity: 0.0034513
inclination: 82.9254°
perigee height: 954 km
apogee height: 1004 km
right ascension of ascending node: 224.7757°
argument of perigee: 343.7447°
revolutions per day: 13.75668930
mean anomaly at epoch: 74.2600°
orbit number at epoch: 45103

The dashed part of the orbit path shows where the satellite is in the earth's shadow,  

DLR